Weather History for Joplin, MO

Change the Weather History Date:

Thursday, June 27, 2013

  Actual Average Record
Temperature  
Mean Temperature 86 °F 78 °F  
Max Temperature 97 °F 89 °F 102 °F (1953)
Min Temperature 75 °F 68 °F 52 °F (1968)
Degree Days  
Heating Degree Days 0 0  
Month to date heating degree days 12 2  
Since 1 June heating degree days 12 2  
Since 1 July heating degree days 4258 4071  
Cooling Degree Days 21 13  
Month to date cooling degree days 291 277  
Year to date cooling degree days 435 457  
Since 1 June cooling degree days 291 277  
Growing Degree Days 36 (Base 50)    
Moisture  
Dew Point 74 °F    
Average Humidity 71    
Maximum Humidity 94    
Minimum Humidity 48    
Precipitation  
Precipitation T in 0.17 in 3.51 in (1996)
Month to date precipitation 5.39 5.36  
Year to date precipitation 27.78 23.31  
Snow  
Snow 0.00 in - - ()
Month to date snowfall 0.0  
Since 1 June snowfall 0.0  
Since 1 July snowfall 5.7  
Snow Depth 0.00 in    
Sea Level Pressure  
Sea Level Pressure 29.90 in    
Wind  
Wind Speed 6 mph (SSW)    
Max Wind Speed 10 mph    
Max Gust Speed -    
Visibility 10 miles    
Events      
T = Trace of Precipitation, MM = Missing Value Source: NWS Daily Summary

Daily Weather History Graph

Daily Weather History Graph

Search for Another Location

Airport:

Trip Planner

Search our weather history database for the weather conditions in past years. The results will help you decide how hot, cold, wet, or windy it might be!

Date:

Astronomy

Jun. 27, 2013 Rise Set
Actual Time 6:00 AM CDT 8:42 PM CDT
Civil Twilight 5:29 AM CDT 9:12 PM CDT
Nautical Twilight 4:50 AM CDT 9:51 PM CDT
Astronomical Twilight 4:07 AM CDT 10:34 PM CDT
Moon 11:47 PM CDT (6/27) 10:54 AM CDT (6/27)
Length of Visible Light 15h 43m
Length of Day
14h 42m
Waning Gibbous, 76% of the Moon is Illuminated
Jun 27
Waning Gibbous
Jun 29
Last Quarter
Jul 8
New
Jul 15
First Quarter
Jul 22
Full

Hourly Weather History & Observations

Time (CDT) Temp. Heat Index Dew Point Humidity Pressure Visibility Wind Dir Wind Speed Gust Speed Precip Events Conditions
12:53 AM 80.1 °F 84.5 °F 73.9 °F 81% 29.89 in 10.0 mi SSW 9.2 mph - N/A   Clear
1:53 AM 80.1 °F 84.5 °F 73.9 °F 81% 29.89 in 10.0 mi SSW 5.8 mph - N/A   Clear
2:53 AM 79.0 °F - 73.9 °F 84% 29.90 in 10.0 mi SW 5.8 mph - N/A   Clear
3:53 AM 77.0 °F - 73.0 °F 88% 29.90 in 10.0 mi South 4.6 mph - N/A   Clear
4:53 AM 75.9 °F - 73.0 °F 91% 29.91 in 9.0 mi South 6.9 mph - N/A   Clear
5:53 AM 75.0 °F - 73.0 °F 94% 29.92 in 8.0 mi South 5.8 mph - N/A   Clear
6:53 AM 77.0 °F - 73.0 °F 88% 29.93 in 8.0 mi South 4.6 mph - N/A   Clear
7:53 AM 81.0 °F 85.8 °F 73.0 °F 77% 29.93 in 10.0 mi SSW 5.8 mph - N/A   Clear
8:53 AM 84.9 °F 91.4 °F 73.0 °F 67% 29.94 in 10.0 mi SW 5.8 mph - N/A   Clear
9:53 AM 88.0 °F 95.6 °F 73.0 °F 61% 29.95 in 10.0 mi SW 6.9 mph - N/A   Clear
10:53 AM 90.0 °F 99.0 °F 73.9 °F 59% 29.95 in 10.0 mi Variable 3.5 mph - N/A   Clear
11:53 AM 93.0 °F 103.2 °F 73.9 °F 54% 29.94 in 10.0 mi Calm Calm - N/A   Clear
12:53 PM 93.0 °F 104.6 °F 75.0 °F 56% 29.93 in 10.0 mi SSW 5.8 mph - N/A   Clear
1:53 PM 95.0 °F 106.7 °F 75.0 °F 52% 29.92 in 10.0 mi WSW 8.1 mph - N/A   Clear
2:53 PM 95.0 °F 104.5 °F 73.0 °F 49% 29.91 in 10.0 mi Calm Calm - N/A   Clear
3:53 PM 96.1 °F 105.6 °F 73.0 °F 47% 29.90 in 10.0 mi Calm Calm - N/A   Clear
4:53 PM 96.1 °F 107.1 °F 73.9 °F 49% 29.88 in 10.0 mi SSE 3.5 mph - N/A   Clear
5:53 PM 95.0 °F 105.2 °F 73.9 °F 50% 29.85 in 10.0 mi South 6.9 mph - N/A   Scattered Clouds
6:53 PM 90.0 °F 99.0 °F 73.9 °F 59% 29.84 in 10.0 mi South 4.6 mph - N/A   Clear
7:53 PM 87.1 °F 95.4 °F 73.9 °F 65% 29.82 in 10.0 mi South 6.9 mph - N/A   Clear
8:53 PM 84.9 °F 93.3 °F 75.0 °F 72% 29.84 in 10.0 mi SSW 4.6 mph - N/A   Clear
9:53 PM 86.0 °F 93.8 °F 73.9 °F 67% 29.85 in 10.0 mi SSW 8.1 mph - N/A   Clear
10:53 PM 84.9 °F 92.1 °F 73.9 °F 69% 29.88 in 10.0 mi SSW 10.4 mph - N/A   Clear
11:53 PM 84.9 °F 92.1 °F 73.9 °F 69% 29.84 in 10.0 mi SSW 8.1 mph - N/A   Clear